This is the latest recevied weather packets stored in our database for station/object EA1IRT-1. If no packets are shown the sender has not sent any weather packets the latest 10 day(s).
| Time | Temp. | Humidity | Pressure | Rain* | Wind** | Luminosity | Snow |
|---|---|---|---|---|---|---|---|
| 1778049661 | 12.22° C | 90% | 1015.6 hPa | - | - | - | - |
| 1778048761 | 12.22° C | 93% | 1015.5 hPa | - | - | - | - |
| 1778047861 | 11.11° C | 97% | 1015.4 hPa | - | - | - | - |
| 1778046961 | 10.56° C | 99% | 1015.3 hPa | - | - | - | - |
| 1778046061 | 10.56° C | 100% | 1015.4 hPa | - | - | - | - |
| 1778045161 | 10.56° C | 97% | 1015.2 hPa | - | - | - | - |
| 1778044261 | 10.56° C | 96% | 1015.1 hPa | - | - | - | - |
| 1778043361 | 10.56° C | 97% | 1015.2 hPa | - | - | - | - |
| 1778042461 | 11.11° C | 97% | 1015.2 hPa | - | - | - | - |
| 1778041539 | 11.11° C | 96% | 1015.2 hPa | - | - | - | - |
| 1778040615 | 11.11° C | 97% | 1015.2 hPa | - | - | - | - |
| 1778039712 | 11.11° C | 99% | 1015.4 hPa | - | - | - | - |
| 1778038811 | 11.11° C | 97% | 1015.5 hPa | - | - | - | - |
| 1778037911 | 11.67° C | 96% | 1015.5 hPa | - | - | - | - |
| 1778037011 | 11.67° C | 97% | 1015.5 hPa | - | - | - | - |
| 1778036111 | 11.67° C | 98% | 1015.6 hPa | - | - | - | - |
| 1778035211 | 11.67° C | 98% | 1015.5 hPa | - | - | - | - |
| 1778034311 | 11.67° C | 97% | 1015.5 hPa | - | - | - | - |
| 1778033411 | 11.67° C | 100% | 1015.6 hPa | - | - | - | - |
| 1778032511 | 11.67° C | 99% | 1015.7 hPa | - | - | - | - |
| 1778031611 | 11.67° C | 96% | 1015.8 hPa | - | - | - | - |
| 1778030689 | 11.67° C | 97% | 1015.9 hPa | - | - | - | - |
| 1778029762 | 11.67° C | 100% | 1016.1 hPa | - | - | - | - |
| 1778028862 | 11.67° C | 100% | 1016.2 hPa | - | - | - | - |
| 1778027961 | 11.67° C | 100% | 1016.3 hPa | - | - | - | - |
* Rain since midnight (hover to see other rain measurements)
** Current wind speed in m/s (hover to see current wind gust speed)